[[{"header":{"parameterUnit":"m.s-1","parameterCategory":1,"la1":30.2991,"la2":30.254,"lo1":-89.0895,"lo2":-89.0444,"dy":0.0017,"dx":0.0017,"nx":28,"ny":28,"refTime":"2024-10-10T03:00:00:Z","depth":0,"parameterNumber":2,"parameterNumberName":"U-component_of_WINDS"},"data":[0,0,0,0,0,0,0,0,0,0,0,0,0,0,0,0,0,0,0,0,0,0,0,0,0,0,0,0,0,0,0,0,0,0,0,0,0,0,0,0,0,0,0,0,0,0,0,0,0,0,0,0,0,0,0,0,0,0,-1.0776,-1.0776,0,-1.0836,-1.0837,-1.0837,-1.0812,-1.081,-1.0809,-1.0808,-1.0872,-1.0875,-1.0878,0,0,0,0,0,0,0,0,0,0,0,0,0,-1.0641,-1.0644,-1.0776,-1.0776,-1.0777,-1.0836,-1.0837,-1.0837,-1.0812,-1.081,-1.0809,-1.0807,-1.0871,-1.0875,-1.0878,0,0,0,0,0,0,0,0,0,0,0,0,0,-1.0701,-1.0645,-1.0775,-1.0772,-1.0772,-1.0836,-1.0837,-1.0838,-1.0813,-1.081,-1.0808,-1.0806,-1.087,-1.0874,-1.0879,-1.0951,0,0,-1.0893,-1.0895,0,0,0,0,0,0,0,0,-1.0697,-1.0706,-1.0771,-1.0772,-1.0772,-1.0814,-1.0813,-1.0876,-1.0813,-1.0797,-1.0808,-1.0805,-1.0855,-1.086,-1.0877,-1.0954,-1.0957,-1.0893,-1.0896,-1.0898,-1.0899,0,0,0,0,0,0,0,-1.0693,-1.0703,-1.0799,-1.0772,-1.0773,-1.0768,-1.0774,-1.0825,-1.0838,-1.0798,-1.0797,-1.0804,-1.0855,-1.0872,-1.0878,-1.0958,-1.0893,-1.0897,-1.09,-1.0902,-1.1099,-1.1101,0,0,0,0,0,0,-1.0689,-1.07,-1.0798,-1.0801,-1.0729,-1.0772,-1.0778,-1.0803,-1.0837,-1.084,-1.0806,-1.0803,-1.0865,-1.0873,-1.088,-1.0968,-1.0898,-1.0902,-1.0905,-1.1096,-1.1099,-1.1102,0,0,0,0,0,0,-1.0686,-1.0698,-1.0795,-1.075,-1.0762,-1.0776,-1.0804,-1.0805,-1.0823,-1.0842,-1.0845,-1.0821,-1.0864,-1.0874,-1.0934,-1.097,-1.0905,-1.0909,-1.1093,-1.1097,-1.11,-1.1144,0,0,0,0,0,0,-1.0682,-1.0697,-1.0724,-1.0751,-1.0764,-1.0847,-1.0806,-1.0808,-1.0831,-1.0827,-1.0858,-1.0861,-1.0863,-1.0927,-1.0938,-1.0975,-1.0912,-1.109,-1.1095,-1.1099,-1.1139,-1.1148,-1.1156,0,0,0,0,0,-1.0677,-1.0734,-1.0725,-1.0737,-1.0798,-1.0849,-1.0857,-1.0858,-1.0833,-1.0861,-1.0874,-1.086,-1.0964,-1.0933,-1.0946,-1.0985,-1.1088,-1.1094,-1.1099,-1.1135,-1.1147,-1.1156,0,0,0,0,0,0,-1.0712,-1.0737,-1.0728,-1.0795,-1.082,-1.0845,-1.088,-1.087,-1.0903,-1.0898,-1.0898,-1.0906,-1.0968,-1.0982,-1.0948,-1.1057,-1.1022,-1.1031,-1.1046,-1.1057,-1.1065,-1.1061,-1.0916,0,0,0,0,0,-1.0727,-1.0765,-1.0786,-1.0843,-1.0856,-1.0866,-1.0888,-1.0886,-1.0912,-1.0923,-1.094,-1.0967,-1.1006,-1.1032,-1.1068,-1.114,-1.1148,-1.1173,-1.1182,-1.1189,-1.1197,-1.1237,-1.1249,-1.112,-1.112,-1.112,0,0,-1.0759,-1.0778,-1.0802,-1.085,-1.0869,-1.091,-1.0875,-1.0919,-1.095,-1.093,-1.0988,-1.1002,-1.1032,-1.1098,-1.1129,-1.1112,-1.1234,-1.1196,-1.1201,-1.1205,-1.1244,-1.1256,-1.1267,-1.1124,-1.1123,-1.1122,0,0,-1.0839,-1.0856,-1.0906,-1.0926,-1.0955,-1.0961,-1.0973,-1.1,-1.1008,-1.1065,-1.1052,-1.1088,-1.1155,-1.1177,-1.1197,-1.1285,-1.1274,-1.1297,-1.1343,-1.1382,-1.1393,-1.1402,-1.1435,-1.1447,-1.1304,-1.1305,-1.1305,0,-1.0875,-1.0935,-1.0933,-1.0979,-1.1001,-1.0984,-1.1035,-1.1055,-1.1095,-1.1111,-1.1091,-1.1175,-1.1194,-1.1266,-1.1288,-1.1304,-1.1319,-1.1295,-1.1391,-1.14,-1.1409,-1.144,-1.1453,-1.1307,-1.1307,-1.1307,-1.1306,0,-1.098,-1.1022,-1.1058,-1.1097,-1.1123,-1.1171,-1.1177,-1.1204,-1.12,-1.1208,-1.1268,-1.129,-1.1331,-1.1348,-1.1345,-1.142,-1.1409,-1.139,-1.1356,-1.1424,-1.1454,-1.1466,-1.1311,-1.131,-1.1309,-1.1309,0,0,-1.1084,-1.112,-1.1134,-1.1152,-1.1183,-1.1216,-1.1263,-1.1303,-1.1327,-1.1355,-1.1396,-1.1452,-1.1435,-1.1458,-1.1457,-1.1491,-1.1561,-1.1468,-1.1469,-1.1486,-1.1648,-1.1664,-1.1678,-1.1553,-1.1555,-1.1557,-1.1646,0,-1.1168,-1.1251,-1.125,-1.1328,-1.1367,-1.1351,-1.1393,-1.1417,-1.1426,-1.1462,-1.1472,-1.1512,-1.1486,-1.15,-1.1533,-1.1546,-1.1594,-1.1539,-1.1593,-1.1595,-1.1588,-1.1693,-1.1709,-1.1793,-1.1658,-1.166,-1.1661,0,-1.1277,-1.1308,-1.1389,-1.1415,-1.1431,-1.1469,-1.1506,-1.1539,-1.1566,-1.157,-1.1596,-1.1589,-1.1639,-1.1602,-1.1671,-1.1634,-1.1655,-1.1665,-1.1668,-1.1675,-1.1634,-1.1705,-1.1819,-1.1832,-1.1679,-1.1678,-1.1676,0,-1.1347,-1.1409,-1.1466,-1.1482,-1.1512,-1.154,-1.1554,-1.1578,-1.1603,-1.1635,-1.1651,-1.1688,-1.1709,-1.1739,-1.1743,-1.1715,-1.1814,-1.1776,-1.182,-1.182,-1.1844,-1.1842,-1.1965,-1.1854,-1.1854,-1.1854,-1.1853,0,-1.1442,-1.1493,-1.1499,-1.1534,-1.1591,-1.1589,-1.1646,-1.1658,-1.168,-1.1718,-1.1706,-1.1742,-1.1744,-1.1782,-1.1785,-1.1844,-1.1853,-1.1859,-1.186,-1.1861,-1.1861,-1.1877,-1.1872,-1.1857,-1.1856,-1.1856,-1.1855,0,-1.1531,-1.1537,-1.1598,-1.1622,-1.1629,-1.167,-1.1691,-1.1725,-1.1733,-1.1781,-1.1792,-1.1805,-1.1848,-1.1855,-1.1906,-1.1908,-1.1978,-1.1972,-1.1969,-1.1969,-1.2014,-1.201,-1.2153,-1.2172,-1.2047,-1.2048,-1.2049,0,-1.1593,-1.1631,-1.1659,-1.1683,-1.1699,-1.1738,-1.1762,-1.1762,-1.1788,-1.1822,-1.1853,-1.1894,-1.1928,-1.1999,-1.2013,-1.2053,-1.2048,-1.2096,-1.2054,-1.2055,-1.2052,-1.205,-1.2055,-1.2104,-1.2106,-1.2107,-1.2108,0,-1.1701,-1.1702,-1.1737,-1.1773,-1.1802,-1.1831,-1.1858,-1.1879,-1.1882,-1.1912,-1.1956,-1.1983,-1.2034,-1.2077,-1.2116,-1.2132,-1.2122,-1.212,-1.2133,-1.2136,-1.2134,-1.2138,-1.1993,-1.2117,-1.2117,-1.2116,-1.2115,-1.2115,-1.178,-1.1814,-1.1839,-1.1878,-1.1898,-1.1924,-1.1958,-1.1969,-1.2005,-1.2047,-1.2045,-1.2094,-1.212,-1.2171,-1.219,-1.2229,-1.2213,-1.2231,-1.2236,-1.2241,-1.2246,-1.2125,-1.2235,-1.2235,-1.2235,-1.2235,-1.2234,0,-1.1889,-1.1904,-1.1941,-1.1979,-1.201,-1.1995,-1.2025,-1.2053,-1.2095,-1.2121,-1.2154,-1.2205,-1.2246,-1.2263,-1.2304,-1.2332,-1.2328,-1.2343,-1.2342,-1.2346,-1.2257,-1.2243,-1.2345,-1.2345,-1.2345,-1.2345,-1.2345,-1.2345,-1.195,-1.2008,-1.2011,-1.2079,-1.2093,-1.2141,-1.2159,-1.2183,-1.2203,-1.226,-1.2294,-1.2304,-1.2327,-1.2369,-1.2407,-1.241,-1.2427,-1.2444,-1.2447,-1.2363,-1.2352,-1.2342,-1.2328,-1.2447,-1.2448,-1.2533,-1.2534,-1.2534]},{"header":{"parameterUnit":"m.s-1","parameterCategory":1,"la1":30.2991,"la2":30.254,"lo1":-89.0895,"lo2":-89.0444,"dy":0.0017,"dx":0.0017,"nx":28,"ny":28,"refTime":"2024-10-10T03:00:00:Z","depth":0,"parameterNumber":3,"parameterNumberName":"V-component_of_WINDS"},"data":[0,0,0,0,0,0,0,0,0,0,0,0,0,0,0,0,0,0,0,0,0,0,0,0,0,0,0,0,0,0,0,0,0,0,0,0,0,0,0,0,0,0,0,0,0,0,0,0,0,0,0,0,0,0,0,0,0,0,-3.8008,-3.8008,0,-3.8052,-3.8052,-3.8053,-3.7995,-3.7993,-3.7991,-3.7989,-3.8031,-3.8034,-3.8037,0,0,0,0,0,0,0,0,0,0,0,0,0,-3.7871,-3.7873,-3.8007,-3.8008,-3.8009,-3.8052,-3.8052,-3.8053,-3.7995,-3.7993,-3.799,-3.7988,-3.803,-3.8034,-3.8037,0,0,0,0,0,0,0,0,0,0,0,0,0,-3.7924,-3.7874,-3.8007,-3.7985,-3.7984,-3.8051,-3.8052,-3.8053,-3.7996,-3.7993,-3.7989,-3.7986,-3.8029,-3.8033,-3.8038,-3.8129,0,0,-3.8052,-3.8054,0,0,0,0,0,0,0,0,-3.7921,-3.7929,-3.7988,-3.7987,-3.7985,-3.8015,-3.8019,-3.8078,-3.7996,-3.7991,-3.7989,-3.7985,-3.8028,-3.8032,-3.8047,-3.8131,-3.8133,-3.8052,-3.8055,-3.8057,-3.8059,0,0,0,0,0,0,0,-3.7917,-3.7927,-3.8025,-3.7989,-3.7987,-3.7972,-3.7976,-3.803,-3.8026,-3.7991,-3.7987,-3.7993,-3.8027,-3.8043,-3.8048,-3.8133,-3.8052,-3.8056,-3.8059,-3.8061,-3.8294,-3.8297,0,0,0,0,0,0,-3.7917,-3.7924,-3.8023,-3.8026,-3.7945,-3.7977,-3.7982,-3.8008,-3.8026,-3.8025,-3.7996,-3.799,-3.8037,-3.8043,-3.8049,-3.8158,-3.8057,-3.8061,-3.8064,-3.8291,-3.8295,-3.8299,0,0,0,0,0,0,-3.7914,-3.7926,-3.8022,-3.7974,-3.7985,-3.7983,-3.8013,-3.8011,-3.8027,-3.8029,-3.8028,-3.8014,-3.8035,-3.8043,-3.811,-3.8158,-3.8064,-3.8068,-3.8287,-3.8292,-3.8297,-3.8375,0,0,0,0,0,0,-3.791,-3.7925,-3.7961,-3.7975,-3.7988,-3.8083,-3.8016,-3.8014,-3.8036,-3.8029,-3.8046,-3.8045,-3.8033,-3.8103,-3.8115,-3.8163,-3.8071,-3.8282,-3.8289,-3.8295,-3.8368,-3.8382,-3.8394,0,0,0,0,0,-3.7906,-3.798,-3.7963,-3.7975,-3.8032,-3.8085,-3.8092,-3.8077,-3.804,-3.8075,-3.8076,-3.8045,-3.8151,-3.8111,-3.8123,-3.8173,-3.8279,-3.8287,-3.8295,-3.8362,-3.8379,-3.8394,0,0,0,0,0,0,-3.797,-3.7982,-3.7962,-3.8044,-3.8064,-3.8076,-3.8119,-3.8096,-3.8126,-3.8119,-3.8097,-3.8102,-3.8174,-3.818,-3.8135,-3.8262,-3.8209,-3.8219,-3.8256,-3.8272,-3.8285,-3.8282,-3.8075,0,0,0,0,0,-3.7994,-3.8037,-3.8044,-3.8116,-3.8127,-3.8122,-3.8144,-3.8131,-3.8151,-3.8159,-3.8165,-3.8184,-3.8222,-3.8247,-3.8282,-3.8368,-3.8371,-3.8409,-3.8422,-3.8433,-3.8442,-3.8488,-3.8505,-3.8324,-3.8324,-3.8324,0,0,-3.8043,-3.8055,-3.8083,-3.8129,-3.8143,-3.8188,-3.8129,-3.8179,-3.8212,-3.8166,-3.823,-3.8235,-3.8256,-3.8333,-3.8367,-3.834,-3.8493,-3.8442,-3.8451,-3.8455,-3.8498,-3.8515,-3.853,-3.8329,-3.8328,-3.8327,0,0,-3.8156,-3.8169,-3.823,-3.8246,-3.8269,-3.8265,-3.828,-3.8295,-3.8297,-3.8361,-3.8328,-3.8366,-3.8432,-3.8448,-3.8464,-3.8584,-3.8557,-3.8596,-3.8664,-3.871,-3.8724,-3.8737,-3.878,-3.8795,-3.8605,-3.8606,-3.8606,0,-3.8214,-3.8281,-3.8264,-3.8317,-3.8338,-3.83,-3.8361,-3.8377,-3.841,-3.8425,-3.8394,-3.8476,-3.8487,-3.8568,-3.8597,-3.8612,-3.8628,-3.8594,-3.8724,-3.8736,-3.8747,-3.8788,-3.8805,-3.861,-3.861,-3.8609,-3.8609,0,-3.8352,-3.8399,-3.8445,-3.8479,-3.8505,-3.8562,-3.8553,-3.8582,-3.8566,-3.8565,-3.8631,-3.8643,-3.868,-3.8698,-3.8683,-3.8777,-3.876,-3.8727,-3.8673,-3.877,-3.8808,-3.8823,-3.8617,-3.8615,-3.8614,-3.8613,0,0,-3.8506,-3.8531,-3.8548,-3.8563,-3.8586,-3.8621,-3.8676,-3.8713,-3.8738,-3.8762,-3.8807,-3.8864,-3.8834,-3.8853,-3.8839,-3.8879,-3.8974,-3.8841,-3.8842,-3.8866,-3.9079,-3.9103,-3.9122,-3.8956,-3.8959,-3.8961,-3.9077,0,-3.8619,-3.8716,-3.8703,-3.8795,-3.8838,-3.8803,-3.885,-3.8869,-3.887,-3.8906,-3.8906,-3.8947,-3.8904,-3.8915,-3.8953,-3.8955,-3.9016,-3.8946,-3.8997,-3.8999,-3.8994,-3.9142,-3.9168,-3.9277,-3.9092,-3.9094,-3.9096,0,-3.8764,-3.8795,-3.8892,-3.8909,-3.8926,-3.8969,-3.9003,-3.9038,-3.9058,-3.9056,-3.9078,-3.9057,-3.9111,-3.9056,-3.913,-3.9083,-3.9103,-3.9107,-3.9111,-3.9115,-3.9054,-3.915,-3.9311,-3.9328,-3.9119,-3.9117,-3.9116,0,-3.8868,-3.8933,-3.9,-3.9014,-3.9034,-3.9066,-3.9076,-3.9093,-3.9116,-3.9145,-3.916,-3.9194,-3.9213,-3.924,-3.9229,-3.919,-3.9305,-3.9249,-3.9304,-3.9305,-3.933,-3.9329,-3.9497,-3.9343,-3.9343,-3.9343,-3.9342,0,-3.8996,-3.9057,-3.9046,-3.9088,-3.9154,-3.9138,-3.9205,-3.921,-3.9226,-3.9267,-3.9238,-3.9277,-3.9259,-3.9297,-3.9288,-3.9351,-3.936,-3.9359,-3.9356,-3.9362,-3.9362,-3.9375,-3.9367,-3.9347,-3.9346,-3.9345,-3.9345,0,-3.9123,-3.9118,-3.9189,-3.9203,-3.9208,-3.9257,-3.9269,-3.9307,-3.9305,-3.9358,-3.9369,-3.9367,-3.9409,-3.9401,-3.9447,-3.9442,-3.9521,-3.9508,-3.9515,-3.9512,-3.9568,-3.9563,-3.975,-3.9774,-3.9605,-3.9606,-3.9608,0,-3.9205,-3.9251,-3.9271,-3.9297,-3.931,-3.9351,-3.9376,-3.9362,-3.9388,-3.9415,-3.945,-3.949,-3.9522,-3.9591,-3.9593,-3.9629,-3.9617,-3.968,-3.9622,-3.9627,-3.9618,-3.9616,-3.9621,-3.9692,-3.9694,-3.9695,-3.9697,0,-3.9351,-3.9347,-3.9384,-3.942,-3.945,-3.9478,-3.9502,-3.9525,-3.9513,-3.9543,-3.9587,-3.9612,-3.966,-3.9701,-3.9734,-3.9743,-3.9718,-3.9715,-3.973,-3.9736,-3.9738,-3.9738,-3.9546,-3.9711,-3.9709,-3.9708,-3.9708,-3.9707,-3.9458,-3.9498,-3.9519,-3.956,-3.9578,-3.9602,-3.9639,-3.9642,-3.9679,-3.9718,-3.9707,-3.9758,-3.9777,-3.9819,-3.9832,-3.987,-3.9847,-3.9868,-3.9873,-3.9879,-3.9886,-3.9732,-3.9876,-3.9876,-3.9875,-3.9875,-3.9875,0,-3.9604,-3.9615,-3.9654,-3.969,-3.9723,-3.9698,-3.9724,-3.9753,-3.9798,-3.9818,-3.985,-3.9901,-3.994,-3.9946,-3.9983,-4.0012,-4.0002,-4.0023,-4.002,-4.0023,-3.9905,-3.9889,-4.003,-4.003,-4.003,-4.003,-4.003,-4.003,-3.9683,-3.9749,-3.9748,-3.9822,-3.9833,-3.9883,-3.99,-3.9921,-3.9938,-3.9996,-4.0029,-4.0033,-4.0047,-4.0085,-4.012,-4.012,-4.0135,-4.0161,-4.0157,-4.0047,-4.0031,-4.0016,-4.0001,-4.0164,-4.0164,-4.0272,-4.0273,-4.0273]}]]